Tucson, AZ

9:15 PM MST on July 25, 2017 (GMT -0700)
Tucson International

Weather History for KTUS - May, 2014

Change the Weather History Date:

Friday, May 16, 2014

  Actual Average Record
Temperature  
Mean Temperature 82 °F 76 °F  
Max Temperature 100 °F 92 °F 106 °F (1934)
Min Temperature 63 °F 61 °F 44 °F (1911)
Degree Days  
Heating Degree Days 0 0  
Month to date heating degree days 0 3  
Since 1 July heating degree days 899 1509  
Cooling Degree Days 17 11  
Month to date cooling degree days 143 145  
Year to date cooling degree days 355 299  
Growing Degree Days 32 (Base 50)    
Moisture  
Dew Point 9 °F    
Average Humidity 8    
Maximum Humidity 14    
Minimum Humidity 2    
Precipitation  
Precipitation 0.00 in 0.00 in 0.14 in (2007)
Month to date precipitation 0.00 0.11  
Year to date precipitation 0.61 2.95  
Sea Level Pressure  
Sea Level Pressure 29.89 in    
Wind  
Wind Speed 7 mph (WSW)    
Max Wind Speed 17 mph    
Max Gust Speed 23 mph    
Visibility 10 miles    
Events      
T = Trace of Precipitation, MM = Missing Value Source: NWS Daily Summary

Daily Weather History Graph

Daily Weather History Graph

Search for Another Location

Airport or City:

Trip Planner

Search our weather history database for the weather conditions in past years. The results will help you decide how hot, cold, wet, or windy it might be!

Date:

Astronomy

May. 16, 2014 Rise Set
Actual Time 5:25 AM MST 7:15 PM MST
Civil Twilight 4:58 AM MST 7:42 PM MST
Nautical Twilight 4:25 AM MST 8:14 PM MST
Astronomical Twilight 3:51 AM MST 8:49 PM MST
Moon 9:25 PM MST (5/16) 7:10 AM MST (5/16)
Length of Visible Light 14h 43m
Length of Day
13h 49m
Waning Gibbous, 95% of the Moon is Illuminated
May 16
Waning Gibbous
May 21
Last Quarter
May 28
New
Jun 5
First Quarter
Jun 12
Full

Hourly Weather History & Observations

Time (MST) Temp. Dew Point Humidity Pressure Visibility Wind Dir Wind Speed Gust Speed Precip Events Conditions
12:53 AM 69.1 °F 12.0 °F 11% 29.95 in 10.0 mi SSE 9.2 mph - N/A   Clear
1:53 AM 66.9 °F 14.0 °F 13% 29.95 in 10.0 mi SE 8.1 mph - N/A   Clear
2:53 AM 66.0 °F 12.0 °F 12% 29.95 in 10.0 mi SE 9.2 mph - N/A   Clear
3:53 AM 63.0 °F 12.9 °F 14% 29.96 in 10.0 mi SSE 6.9 mph - N/A   Clear
4:53 AM 64.0 °F 12.9 °F 14% 29.95 in 10.0 mi SSE 9.2 mph - N/A   Clear
5:53 AM 63.0 °F 12.0 °F 14% 29.96 in 10.0 mi SSE 11.5 mph - N/A   Clear
6:53 AM 66.9 °F 12.9 °F 12% 29.97 in 10.0 mi SSE 10.4 mph - N/A   Clear
7:53 AM 73.0 °F 14.0 °F 11% 29.98 in 10.0 mi SSE 9.2 mph - N/A   Clear
8:53 AM 81.0 °F 14.0 °F 8% 29.96 in 10.0 mi SSE 5.8 mph - N/A   Clear
9:53 AM 87.1 °F 12.9 °F 6% 29.95 in 10.0 mi Calm Calm - N/A   Clear
10:53 AM 91.0 °F 10.9 °F 5% 29.93 in 10.0 mi Calm Calm - N/A   Clear
11:53 AM 93.9 °F 6.1 °F 4% 29.90 in 10.0 mi Calm Calm - N/A   Clear
12:53 PM 96.8 °F -0.4 °F 4% 30.02 in 10.0 mi NNW 6.9 mph - N/A   Clear
1:53 PM 97.0 °F 3.9 °F 4% 29.86 in 10.0 mi WNW 6.9 mph 16.1 mph N/A   Clear
2:53 PM 98.1 °F 3.0 °F 4% 29.84 in 10.0 mi North 4.6 mph - N/A   Clear
3:53 PM 99.0 °F -2.0 °F 4% 29.82 in 10.0 mi WNW 11.5 mph - N/A   Clear
4:53 PM 98.1 °F 1.0 °F 4% 29.80 in 10.0 mi WNW 10.4 mph 19.6 mph N/A   Clear
5:53 PM 96.1 °F -0.0 °F 4% 29.79 in 10.0 mi WNW 10.4 mph - N/A   Clear
6:53 PM 93.9 °F 3.0 °F 4% 29.78 in 10.0 mi WNW 11.5 mph - N/A   Clear
7:53 PM 91.0 °F 9.0 °F 5% 29.79 in 10.0 mi NNW 6.9 mph - N/A   Clear
8:53 PM 87.1 °F 12.9 °F 6% 29.80 in 10.0 mi NNW 5.8 mph - N/A   Clear
9:53 PM 84.0 °F 12.0 °F 7% 29.82 in 10.0 mi West 8.1 mph - N/A   Clear
10:53 PM 81.0 °F 15.1 °F 8% 29.83 in 10.0 mi West 5.8 mph - N/A   Clear
11:53 PM 79.0 °F 17.1 °F 10% 29.82 in 10.0 mi WSW 5.8 mph - N/A   Clear